Home > Weather > Gloucester > Past weeks

Flag for U.S.A. Weather for the Past 2 Weeks in Gloucester, Massachusetts, U.S.A.

Now
32 °F

Partly cloudy.


Feels Like: 24 °F
Forecast: 32 / 41 °F
Wind: 9 mph from Southwest

Location: Beverly Municipal Airport

Current Time: Feb 6, 2016 at 7:12:45 PM

Latest Report: Feb 6, 2016 at 5:53 PM


Visibility: 10 mi

Pressure: 30.25 "Hg

Humidity: 66%

Dew point: 22 °F

Location of GloucesterLocation

Historic Weather in Gloucester — Graph

°F

Gloucester Temperature Yesterday

Maximum temperature yesterday: 41 °F (at 12:53 AM)
Minimum temperature yesterday: 23 °F (at 11:53 PM)
Average temperature yesterday: 32 °F

High & Low Weather Summary for the Past Weeks

 TemperatureHumidityPressure
High64 °F (Feb 1, 11:53 AM)92% (Jan 29, 8:00 AM)30.39 "Hg (Jan 29, 8:00 AM)
Low16 °F (Jan 24, 6:53 AM)23% (Jan 24, 12:53 PM)29.35 "Hg (Jan 29, 12:53 PM)
Average37 °F62%29.95 "Hg
* Reported Jan 22 4:53 PM — Feb 6 4:53 PM, Gloucester, Weather by CustomWeather, © 2016

Note: Actual official high and low records may vary slightly from our data, if they occured in-between our weather recording intervals... More about our weather records

Advertising

Gloucester Weather History for the Previous 24 Hours

 ConditionsComfort  
Time TempWeatherWind HumidityBarometerVisibility
4:53 PM
Sat, Feb 6
34 °FBroken clouds.9 mph61%30.24 "Hg10 mi
3:53 PM35 °FSunny.8 mph64%30.24 "Hg10 mi
2:53 PM35 °FSunny.14 mph59%30.26 "Hg10 mi
1:53 PM34 °FSunny.13 mph64%30.27 "Hg10 mi
12:53 PM32 °FSunny.10 mph69%30.29 "Hg10 mi
11:53 AM31 °FSunny.6 mph69%30.32 "Hg10 mi
10:53 AM29 °FSunny.6 mph72%30.35 "Hg10 mi
9:53 AM27 °FSunny.6 mph69%30.37 "Hg10 mi
8:53 AM23 °FSunny.5 mph72%30.36 "Hg10 mi
7:53 AM20 °FSunny.5 mph78%30.34 "Hg10 mi
6:53 AM17 °FSunny.5 mph80%30.34 "Hg10 mi
5:53 AM17 °FClear.5 mph76%30.32 "Hg10 mi
4:53 AM19 °FClear.6 mph77%30.31 "Hg10 mi
3:53 AM17 °FClear.3 mph80%30.29 "Hg10 mi
2:53 AM19 °FClear.3 mph85%30.27 "Hg10 mi
1:53 AM20 °FClear.6 mph78%30.26 "Hg10 mi
12:53 AM23 °FClear.8 mph72%30.24 "Hg10 mi
11:53 PM
Fri, Feb 5
23 °FClear.9 mph72%30.22 "Hg10 mi
10:53 PM24 °FClear.12 mph68%30.20 "Hg10 mi
9:53 PM24 °FClear.9 mph71%30.18 "Hg10 mi
8:53 PM25 °FClear.14 mph72%30.15 "Hg10 mi
7:53 PM26 °FClear.15 mph74%30.12 "Hg10 mi
Weather by CustomWeather, © 2016

See weather overviewHow to use our weather pages